Preview of NWS' New Version of Forecast
This preview is not operational and should not be used for support decisions.

Regional Weather Roundup (RWR)

Issued by National Weather Service (NWS)

                            
000
ASUS46 KSEW 221410
RWRWA 

WASHINGTON REGIONAL WEATHER ROUNDUP
NATIONAL WEATHER SERVICE SEATTLE WA
700 AM PDT THU AUG 22 2019

NOTE:"FAIR" INDICATES FEW OR NO CLOUDS BELOW 12,000 FEET WITH NO 
SIGNIFICANT WEATHER AND/OR OBSTRUCTIONS TO VISIBILITY.

WAZ507-509-555>559-221500-
SEATTLE, TACOMA, EVERETT, AND VICINITY
  
CITY           SKY/WX    TMP DP  RH WIND       PRES   REMARKS
EVERETT        CLEAR     54  52  93 S3        30.07R                  
BOEING FIELD   CLOUDY    58  54  86 S6        30.07R                  
RENTON         CLOUDY    57  56  96 S5        30.07R FOG              
SEATAC AIRPORT FOG       56  54  93 S6        30.07R VSB 1            
JBLM-MCCHORD   CLOUDY    55  54  94 CALM      30.08R                  
PUYALLUP       DRIZZLE   55  55 100 CALM      30.08R                  
BREMERTON      CLOUDY    55  54  94 S3        30.08R FOG              
JBLM-FT LEWIS  CLOUDY    55  55 100 SE6       30.07R                  
TACOMA NARROWS CLOUDY    54  54 100 SW3       30.08R FOG              
$$
 
WAZ001-503-506-510-514-515-221500-
NORTH INTERIOR
  
CITY           SKY/WX    TMP DP  RH WIND       PRES   REMARKS
BELLINGHAM     CLOUDY    59  51  75 CALM      30.05R                  
FRIDAY HARBOR  CLEAR     50  50 100 CALM      30.06R FOG              
EASTSOUND      CLEAR     54  52  94 CALM      30.04R                  
PORT ANGELES   CLEAR     50  49  96 SW6       30.06R                  
EDIZ HOOK      FAIR      51  50  96 CALM      30.06R                  
PORT TOWNSEND  FOG       50  50 100 CALM      30.05R VSB<1/4          
NAS WHIDBEY    PTCLDY    54  50  86 SE5       30.09R                  
ARLINGTON      CLOUDY    53  53 100 CALM      30.07R                  
BURLINGTON     CLOUDY    54  52  94 CALM      30.06R FOG              
$$
 
WAZ020-022-039-040-504-511-512-221500-
SOUTHWEST INTERIOR
  
CITY           SKY/WX    TMP DP  RH WIND       PRES   REMARKS
SHELTON        CLOUDY    55  52  89 NW3       30.05R                  
OLYMPIA        CLOUDY    55  53  93 CALM      30.07R FOG              
CHEHALIS       CLOUDY    54  52  94 SW5       30.09R                  
KELSO          CLEAR     52  51  97 CALM      30.10R                  
VANCOUVER      MOCLDY    52  49  89 CALM      30.08S                  
SCAPPOOSE, OR  CLEAR     48  47  96 CALM      30.08R                  
PORTLAND, OR   MOCLDY    58  52  80 CALM      30.09R                  
$$
 
WAZ021-516-517-221500-
WASHINGTON COAST
  
CITY           SKY/WX    TMP DP  RH WIND       PRES   REMARKS
FORKS          CLOUDY    53  52  96 CALM      30.05R                  
HOQUIAM        MOCLDY    56  55  97 CALM      30.07R                  
ASTORIA, OR    CLOUDY    53  52  96 CALM      30.07S                  
$$
 
WAZ019-023-024-040-567>569-221500-
CASCADE MOUNTAINS AND COLUMBIA GORGE
  
CITY           SKY/WX    TMP DP  RH WIND       PRES   REMARKS
STAMPEDE PASS  FOG       49  47  93 VRB7      30.07R VSB<1/4          
TROUTDALE, OR  CLOUDY    58  52  80 CALM      30.09R                  
HOOD RIVER, OR MOSUNNY   55  50  82 W10G16    30.03R                  
THE DALLES, OR CLEAR     61  50  67 NW13      29.98R                  
$$

WAZ026-027-041>044-520-521-221500-
EAST SLOPES
  
CITY           SKY/WX    TMP DP  RH WIND       PRES   REMARKS
OMAK           CLEAR     62  54  74 NW7       29.93R                  
WENATCHEE      CLEAR     65  46  50 NW12      29.93R                  
ELLENSBURG     CLEAR     61  50  67 NW18G26   29.95R                  
YAKIMA         CLEAR     53  47  79 CALM      29.94R                  
SUNNYSIDE ARPT SUNNY     54  54 100 CALM      29.93R                  
YAKIMA TC      FAIR      58  50  74 S5        29.93R                  
$$

WAZ028-034-035-221500-
COLUMBIA BASIN
  
CITY           SKY/WX    TMP DP  RH WIND       PRES   REMARKS
EPHRATA        CLEAR     59  57  93 N6        29.91R                  
MOSES LAKE     CLEAR     60  58  92 W3        29.91R                  
PASCO          CLEAR     64  57  78 S5        29.92R                  
RICHLAND ARPT  SUNNY     64  59  82 SW7       29.91R                  
HERMISTON, OR  CLEAR     63  54  72 SW10      29.94R                  
$$

WAZ036>038-221500-
NORTHEAST WASHINGTON
  
CITY           SKY/WX    TMP DP  RH WIND       PRES   REMARKS
SPOKANE GEIGER CLOUDY    60  55  83 SW8       29.93R                  
SPOKANE FELTS  CLOUDY    63  57  81 SW6       29.93R                  
FAIRCHILD AFB  CLOUDY    58  58 100 SW7       29.94R                  
COEURDALENE,ID RAIN      59  58  96 W3        29.94S FOG              
DEER PARK      CLOUDY    60  57  89 S6        29.94R                  
$$

WAZ029>033-221500-
SOUTHEAST WASHINGTON
  
CITY           SKY/WX    TMP DP  RH WIND       PRES   REMARKS
PULLMAN        CLOUDY    57  56  96 CALM      29.98R                  
LEWISTON, ID   MOSUNNY   63  60  90 CALM      29.93R                  
WALLA WALLA    PTCLDY    62  56  80 S9        29.95R                  
PENDLETON, OR  MOCLDY    62  51  67 W18G29    29.95R                  
$$